This is the latest recevied weather packets stored in our database for station/object HB4LO-13. If no packets are shown the sender has not sent any weather packets the latest 1 day(s).
| Time | Temp. | Humidity | Pressure | Rain* | Wind** | Luminosity | Snow |
|---|---|---|---|---|---|---|---|
| 1777982826 | 16.11° C | 62% | - | 0.25 mm | 1.34 m/s, 170° | - | - |
| 1777982812 | 16.11° C | 62% | - | 0.25 mm | 2.24 m/s, 183° | - | - |
| 1777982766 | 16.11° C | 62% | - | 0.25 mm | 2.24 m/s, 183° | - | - |
| 1777982706 | 16.11° C | 62% | - | 0.25 mm | 2.24 m/s, 176° | - | - |
| 1777982646 | 16.11° C | 62% | - | 0.25 mm | 2.68 m/s, 184° | - | - |
| 1777982586 | 16.11° C | 62% | - | 0.25 mm | 2.24 m/s, 172° | - | - |
| 1777982526 | 16.11° C | 62% | - | 0.25 mm | 2.24 m/s, 174° | - | - |
| 1777982466 | 16.11° C | 62% | - | 0.25 mm | 2.24 m/s, 187° | - | - |
| 1777982406 | 16.11° C | 62% | - | 0.25 mm | 1.79 m/s, 172° | - | - |
| 1777982346 | 16.11° C | 62% | - | 0.25 mm | 1.79 m/s, 171° | - | - |
| 1777982286 | 16.11° C | 62% | - | 0.25 mm | 1.79 m/s, 171° | - | - |
| 1777982226 | 16.11° C | 62% | - | 0.25 mm | 1.34 m/s, 182° | - | - |
| 1777982166 | 16.11° C | 62% | - | 0.25 mm | 1.79 m/s, 183° | - | - |
| 1777982106 | 16.11° C | 62% | - | 0.25 mm | 1.79 m/s, 194° | - | - |
| 1777982046 | 16.11° C | 62% | - | 0.25 mm | 2.68 m/s, 177° | - | - |
| 1777981986 | 16.11° C | 62% | - | 0.25 mm | 1.79 m/s, 182° | - | - |
| 1777981926 | 16.11° C | 62% | - | 0.25 mm | 2.24 m/s, 166° | - | - |
| 1777981866 | 16.67° C | 62% | - | 0.25 mm | 2.24 m/s, 166° | - | - |
| 1777981806 | 16.67° C | 62% | - | 0.25 mm | 1.34 m/s, 183° | - | - |
| 1777981746 | 16.67° C | 62% | - | 0.25 mm | 0.89 m/s, 187° | - | - |
| 1777981686 | 16.67° C | 62% | - | 0.25 mm | 0.89 m/s, 207° | - | - |
| 1777981626 | 16.67° C | 62% | - | 0.25 mm | 1.79 m/s, 170° | - | - |
| 1777981566 | 16.67° C | 62% | - | 0.25 mm | 1.79 m/s, 172° | - | - |
| 1777981506 | 16.67° C | 62% | - | 0.25 mm | 1.34 m/s, 184° | - | - |
| 1777981446 | 16.67° C | 62% | - | 0.25 mm | 0.89 m/s, 181° | - | - |
* Rain latest hour (hover to see other rain measurements)
** Current wind speed in m/s (hover to see current wind gust speed)